Location: Lake Almanor
(40.2485°N, 121.1442°W)
Time: 13:01:51
(UTC-08:00)

STARLINK-1091 - Pass Details

Date: 29 January 2020
Orbit: 349 x 350 km, 53.0° (Epoch: 18 February)

Event Time Altitude Azimuth Distance (km) Brightness Sun altitude
Rises 18:56:13 0° 315° (NW) 2,164 7.2 -18.6°
Reaches altitude 10° 18:58:20 10° 325° (NW) 1,319 5.9 -19.0°
Enters shadow 18:59:50 23° 346° (NNW) 805 4.5 -19.3°
